When you browse on this site, cookies collect data to enhance your experience and personalize the content and advertising you see.
Visit our Privacy Policy to learn more. By continuing to use the site, you agree to this use of cookies and data.
  • En España
  • Lista de países
  • Para 7 días
  • Temperatura del agua
  • Mapa Satelital
  • El tiempo en el mapa
  • Informadores
  • user-avatar
    Iniciar sesión

    Tiempo cada hora Palermo

    Hoy, 25 Junio, Martes

    Tiempo Temperatura Precipitaciones Viento Presión Humedad
    00:00 +25°C° 0 mm 2 mps 760 mmHg 53%
    01:00 +25°C° 0 mm 2 mps 760 mmHg 57%
    02:00 +25°C° 0 mm 2 mps 760 mmHg 56%
    03:00 +25°C° 0 mm 2 mps 759 mmHg 56%
    04:00 +25°C° 0 mm 2 mps 759 mmHg 55%
    05:00 +26°C° 0 mm 1 mps 759 mmHg 52%
    06:00 +28°C° 0 mm 1 mps 760 mmHg 48%
    07:00 +30°C° 0 mm 1 mps 760 mmHg 44%
    08:00 +31°C° 0 mm 2 mps 760 mmHg 42%
    09:00 +32°C° 0 mm 2 mps 760 mmHg 41%
    10:00 +34°C° 0 mm 3 mps 761 mmHg 40%
    11:00 +34°C° 0 mm 3 mps 761 mmHg 39%
    12:00 +35°C° 0 mm 3 mps 761 mmHg 38%
    13:00 +35°C° 0 mm 3 mps 761 mmHg 37%
    14:00 +34°C° 0 mm 3 mps 761 mmHg 38%
    15:00 +34°C° 0 mm 3 mps 761 mmHg 39%
    16:00 +33°C° 0 mm 3 mps 761 mmHg 40%
    17:00 +31°C° 0 mm 3 mps 761 mmHg 44%
    18:00 +30°C° 0 mm 2 mps 761 mmHg 47%
    19:00 +29°C° 0 mm 2 mps 761 mmHg 50%
    20:00 +28°C° 0 mm 2 mps 761 mmHg 53%
    21:00 +27°C° 0 mm 2 mps 761 mmHg 56%
    22:00 +26°C° 0 mm 2 mps 761 mmHg 60%
    23:00 +26°C° 0 mm 2 mps 761 mmHg 60%

    Mañana, 26 Junio, Miércoles

    Tiempo Temperatura Precipitaciones Viento Presión Humedad
    00:00 +25°C° 0 mm 2 mps 761 mmHg 61%
    01:00 +25°C° 0 mm 1 mps 761 mmHg 62%
    02:00 +25°C° 0 mm 1 mps 761 mmHg 63%
    03:00 +25°C° 0 mm 1 mps 761 mmHg 63%
    04:00 +25°C° 0 mm 1 mps 761 mmHg 63%
    05:00 +27°C° 0 mm 1 mps 761 mmHg 59%
    06:00 +28°C° 0 mm 1 mps 761 mmHg 55%
    07:00 +28°C° 0 mm 0 mps 762 mmHg 51%
    08:00 +31°C° 0 mm 1 mps 762 mmHg 48%
    09:00 +32°C° 0 mm 2 mps 762 mmHg 45%
    10:00 +34°C° 0 mm 2 mps 762 mmHg 43%
    11:00 +34°C° 0 mm 3 mps 762 mmHg 44%
    12:00 +34°C° 0 mm 3 mps 762 mmHg 45%
    13:00 +34°C° 0 mm 3 mps 762 mmHg 47%
    14:00 +34°C° 0 mm 3 mps 762 mmHg 48%
    15:00 +33°C° 0 mm 3 mps 761 mmHg 49%
    16:00 +32°C° 0 mm 2 mps 761 mmHg 51%
    17:00 +31°C° 0 mm 2 mps 761 mmHg 54%
    18:00 +30°C° 0 mm 1 mps 761 mmHg 57%
    19:00 +29°C° 0 mm 1 mps 761 mmHg 60%
    20:00 +28°C° 0 mm 1 mps 761 mmHg 64%
    21:00 +27°C° 0 mm 1 mps 761 mmHg 67%
    22:00 +26°C° 0 mm 1 mps 761 mmHg 71%
    23:00 +26°C° 0 mm 1 mps 761 mmHg 71%

    Pasado mañana, 27 Junio, Jueves

    Tiempo Temperatura Precipitaciones Viento Presión Humedad
    00:00 +26°C° 0 mm 1 mps 761 mmHg 72%
    01:00 +26°C° 0 mm 1 mps 761 mmHg 73%
    02:00 +25°C° 0 mm 1 mps 761 mmHg 71%
    03:00 +25°C° 0 mm 1 mps 760 mmHg 68%
    04:00 +25°C° 0 mm 1 mps 760 mmHg 66%
    05:00 +27°C° 0 mm 1 mps 760 mmHg 61%
    06:00 +28°C° 0 mm 1 mps 760 mmHg 56%
    07:00 +30°C° 0 mm 1 mps 760 mmHg 50%
    08:00 +31°C° 0 mm 1 mps 760 mmHg 48%
    09:00 +32°C° 0 mm 2 mps 760 mmHg 45%
    10:00 +34°C° 0 mm 2 mps 760 mmHg 43%
    11:00 +35°C° 0 mm 2 mps 760 mmHg 42%
    12:00 +35°C° 0 mm 3 mps 760 mmHg 42%
    13:00 +35°C° 0 mm 3 mps 760 mmHg 42%
    14:00 +35°C° 0 mm 3 mps 760 mmHg 44%
    15:00 +34°C° 0 mm 3 mps 759 mmHg 47%
    16:00 +33°C° 0 mm 3 mps 759 mmHg 49%
    17:00 +31°C° 0 mm 2 mps 759 mmHg 53%
    18:00 +31°C° 0 mm 2 mps 759 mmHg 57%
    19:00 +30°C° 0 mm 1 mps 758 mmHg 60%
    20:00 +29°C° 0 mm 1 mps 759 mmHg 65%
    21:00 +28°C° 0 mm 1 mps 759 mmHg 70%
    22:00 +27°C° 0 mm 1 mps 759 mmHg 74%
    23:00 +26°C° 0 mm 1 mps 759 mmHg 75%

    28 Junio, Viernes

    Tiempo Temperatura Precipitaciones Viento Presión Humedad
    00:00 +26°C° 0 mm 1 mps 758 mmHg 77%
    01:00 +26°C° 0 mm 1 mps 758 mmHg 78%
    02:00 +26°C° 0 mm 1 mps 758 mmHg 76%
    03:00 +26°C° 0 mm 1 mps 758 mmHg 73%
    04:00 +26°C° 0 mm 1 mps 757 mmHg 71%
    05:00 +27°C° 0 mm 1 mps 757 mmHg 66%
    06:00 +28°C° 0 mm 1 mps 757 mmHg 61%
    07:00 +30°C° 0 mm 1 mps 757 mmHg 56%
    08:00 +31°C° 0 mm 1 mps 757 mmHg 50%
    09:00 +34°C° 0 mm 2 mps 757 mmHg 43%
    10:00 +35°C° 0 mm 2 mps 757 mmHg 37%
    11:00 +36°C° 0 mm 3 mps 757 mmHg 36%
    12:00 +36°C° 0 mm 3 mps 757 mmHg 35%
    13:00 +36°C° 0 mm 4 mps 757 mmHg 35%
    14:00 +35°C° 0 mm 4 mps 757 mmHg 38%
    15:00 +35°C° 0 mm 4 mps 757 mmHg 41%
    16:00 +34°C° 0 mm 4 mps 756 mmHg 44%
    17:00 +33°C° 0 mm 3 mps 756 mmHg 49%
    18:00 +30°C° 0 mm 2 mps 756 mmHg 54%
    19:00 +29°C° 0 mm 2 mps 756 mmHg 58%
    20:00 +28°C° 0 mm 1 mps 757 mmHg 60%
    21:00 +27°C° 0 mm 1 mps 757 mmHg 62%
    22:00 +27°C° 0 mm 1 mps 757 mmHg 64%
    23:00 +26°C° 0 mm 1 mps 757 mmHg 65%

    29 Junio, Sábado

    Tiempo Temperatura Precipitaciones Viento Presión Humedad
    00:00 +26°C° 0 mm 1 mps 757 mmHg 65%
    01:00 +26°C° 0 mm 1 mps 757 mmHg 65%
    02:00 +26°C° 0 mm 1 mps 756 mmHg 63%
    03:00 +26°C° 0 mm 1 mps 756 mmHg 61%
    04:00 +26°C° 0 mm 1 mps 756 mmHg 58%
    05:00 +26°C° 0 mm 0 mps 756 mmHg 53%
    06:00 +27°C° 0 mm 0 mps 756 mmHg 49%
    07:00 +29°C° 0 mm 0 mps 756 mmHg 44%
    08:00 +32°C° 0 mm 1 mps 757 mmHg 41%
    09:00 +34°C° 0 mm 1 mps 757 mmHg 39%
    10:00 +36°C° 0 mm 2 mps 757 mmHg 36%
    11:00 +36°C° 0 mm 2 mps 757 mmHg 36%
    12:00 +37°C° 0 mm 3 mps 757 mmHg 35%
    13:00 +37°C° 0 mm 3 mps 757 mmHg 34%
    14:00 +36°C° 0 mm 3 mps 757 mmHg 35%
    15:00 +36°C° 0 mm 3 mps 757 mmHg 37%
    16:00 +35°C° 0 mm 3 mps 757 mmHg 38%
    17:00 +34°C° 0 mm 3 mps 757 mmHg 39%
    18:00 +33°C° 0 mm 3 mps 757 mmHg 41%
    19:00 +31°C° 0 mm 2 mps 757 mmHg 42%
    20:00 +30°C° 0 mm 2 mps 757 mmHg 40%
    21:00 +29°C° 0 mm 2 mps 758 mmHg 38%
    22:00 +28°C° 0 mm 2 mps 758 mmHg 36%
    23:00 +27°C° 0 mm 2 mps 758 mmHg 37%

    30 Junio, Domingo

    Tiempo Temperatura Precipitaciones Viento Presión Humedad
    00:00 +27°C° 0 mm 2 mps 758 mmHg 39%
    01:00 +26°C° 0 mm 2 mps 758 mmHg 40%
    02:00 +26°C° 0 mm 1 mps 758 mmHg 40%
    03:00 +26°C° 0 mm 1 mps 758 mmHg 40%
    04:00 +26°C° 0 mm 1 mps 758 mmHg 40%
    05:00 +27°C° 0 mm 1 mps 758 mmHg 37%
    06:00 +29°C° 0 mm 1 mps 759 mmHg 35%
    07:00 +28°C° 0 mm 0 mps 759 mmHg 33%
    08:00 +31°C° 0 mm 1 mps 759 mmHg 31%
    09:00 +33°C° 0 mm 1 mps 760 mmHg 29%
    10:00 +35°C° 0 mm 2 mps 760 mmHg 27%
    11:00 +35°C° 0 mm 2 mps 760 mmHg 28%
    12:00 +35°C° 0 mm 3 mps 760 mmHg 29%
    13:00 +35°C° 0 mm 3 mps 760 mmHg 31%
    14:00 +34°C° 0 mm 3 mps 760 mmHg 34%
    15:00 +34°C° 0 mm 3 mps 760 mmHg 38%
    16:00 +32°C° 0 mm 2 mps 760 mmHg 41%
    17:00 +31°C° 0 mm 2 mps 760 mmHg 48%
    18:00 +30°C° 0 mm 2 mps 760 mmHg 54%
    19:00 +28°C° 0 mm 2 mps 760 mmHg 60%
    20:00 +27°C° 0 mm 1 mps 760 mmHg 64%
    21:00 +26°C° 0 mm 1 mps 760 mmHg 69%
    22:00 +25°C° 0 mm 1 mps 761 mmHg 74%
    23:00 +25°C° 0 mm 1 mps 760 mmHg 72%
    Mostrar más